Regional Weather Roundup
Issued by NWS

Home | Current Version | Previous Version | Text Only | Print | Product List | Glossary Off
Versions: 1 2 3 4 5 6 7 8 9 10 11 12 13 14 15 16 17 18 19 20 21 22 23 24 25 26 27 28 29 30 31 32 33 34 35 36 37 38 39 40 41 42 43 44 45 46 47 48 49 50

637
ASUS43 KOAX 190410
RWRNE

WEATHER ROUNDUP FOR NEBRASKA
NATIONAL WEATHER SERVICE OMAHA NE
1100 PM CDT WED APR 18 2018

NOTES: SATELLITE DATA IS BEING USED TO AUGMENT CLOUD COVER ABOVE
       12000 FEET.
       "FAIR" INDICATES FEW OR NO CLOUDS BELOW 12,000 FEET WITH NO
       SIGNIFICANT WEATHER AND/OR OBSTRUCTIONS TO VISIBILITY.


NEZ001>004-019>022-054>056-190500-
NEBRASKA PANHANDLE

CITY           SKY/WX    TMP DP  RH WIND       PRES   REMARKS
SCOTTSBLUFF    PTCLDY    38  25  59 NE8       30.27R WCI  32
ALLIANCE       CLEAR     33  27  78 CALM      30.27R
CHADRON        PTCLDY    33  28  81 CALM      30.28R
GORDON         FAIR      35  33  92 CALM      30.28R
KIMBALL        CLEAR     35  21  57 CALM      30.28R
SIDNEY         CLEAR     29  21  72 CALM      30.27R
$$

NEZ057>060-069>072-079>082-190500-
SOUTHWEST NEBRASKA

CITY           SKY/WX    TMP DP  RH WIND       PRES   REMARKS
NORTH PLATTE   CLEAR     36  29  75 CALM      30.28R
IMPERIAL       CLEAR     35  27  72 NE6       30.28R WCI  30
LEXINGTON      CLEAR     37  30  74 NW6       30.28R WCI  33
MCCOOK         CLEAR     39  30  70 E5        30.29R
OGALLALA       CLEAR     42  32  69 E3        30.29R
$$

NEZ005>010-023>029-035>040-094-190500-
NORTH CENTRAL NEBRASKA

CITY           SKY/WX    TMP DP  RH WIND       PRES   REMARKS
VALENTINE      CLEAR     33  31  92 N3        30.29R
AINSWORTH      CLEAR     33  32  96 NW6       30.28S WCI  27
BROKEN BOW     CLEAR     32  28  85 N8        30.27R WCI  25
O`NEILL        CLEAR     36  34  93 NW9       30.27R WCI  29
ORD            CLEAR     31  29  92 NW7       30.27R WCI  24
THEDFORD       CLEAR     35  32  90 CALM      30.30R
$$

NEZ041-046>049-061>064-073>077-083>087-190500-
SOUTH CENTRAL NEBRASKA

CITY           SKY/WX    TMP DP  RH WIND       PRES   REMARKS
GRAND ISLAND   CLEAR     32  28  85 NW7       30.28R WCI  26
AURORA         CLEAR     33  30  91 NW9       30.26R WCI  25
HASTINGS       CLEAR     29  26  89 NW7       30.28R WCI  22
HEBRON         CLEAR     34  28  77 NW3       30.27S
HOLDREGE       CLEAR     33  31  90 NW5       30.28R WCI  29
KEARNEY        CLEAR     32  28  85 N6        30.29R WCI  26
YORK             N/A     32  32 100 NW12      30.26R WCI  23
$$

NEZ011>018-030>034-042>045-190500-
NORTHEAST NEBRASKA

CITY           SKY/WX    TMP DP  RH WIND       PRES   REMARKS
NORFOLK        CLOUDY    38  34  85 N17       30.24R WCI  28
ALBION         CLOUDY    35  33  90 NW9       30.26R WCI  28
BLAIR          CLOUDY    37  34  88 NW13      30.21R WCI  29
COLUMBUS       CLOUDY    39  33  79 NW13      30.26R WCI  31
FREMONT        CLOUDY    40  36  86 N10G22    30.24R WCI  33
TEKAMAH        CLOUDY    34  31  88 N10       30.24R WCI  26
WAYNE          PTCLDY    34  33  96 N8        30.25R WCI  27
$$

NEZ050>053-065>068-078-088>093-190500-
SOUTHEAST NEBRASKA

CITY           SKY/WX    TMP DP  RH WIND       PRES   REMARKS
LINCOLN        CLOUDY    41  31  67 NW13      30.25R
OMAHA EPPLEY   CLOUDY    38  32  79 N15       30.22R WCI  29
BEATRICE       CLEAR     32  28  82 W9        30.25R WCI  25
FALLS CITY     CLOUDY    37  28  70 W10       30.22S WCI  30
NEBRASKA CITY  CLOUDY    40  32  75 NW17      30.22R WCI  31
PLATTSMOUTH    CLOUDY    38  34  85 NW16      30.21R WCI  29
$$

NEZ044-045-051>053-067-190500-
OMAHA AREA

CITY           SKY/WX    TMP DP  RH WIND       PRES   REMARKS
OMAHA EPPLEY   CLOUDY    38  32  79 N15       30.22R WCI  29
BLAIR          CLOUDY    37  34  88 NW13      30.21R WCI  29
FREMONT        CLOUDY    40  36  86 N10G22    30.24R WCI  33
MILLARD        CLOUDY    40  36  84 N10G20    30.23R WCI  34
OFFUTT AFB     CLOUDY    39  33  77 NW15G23   30.21R WCI  31
PLATTSMOUTH    CLOUDY    38  34  85 NW16      30.21R WCI  29
WAHOO          CLOUDY    41  32  70 NW13G20   30.23R
$$




USA.gov is the U.S. government's official web portal to all federal, state and local government web resources and services.